#timestamp,LO_Frequency,Hit,Temp,Hum 
1487365215.7,286047015.2,N,0.0,0.0
1487365235.5,286047014.6,N,0.0,0.0
1487365255.3,286047016.9,N,0.0,0.0
1487365275.1,286047014.5,N,0.0,0.0
1487365295.9,286047017.0,N,0.0,0.0
1487365315.7,286047016.5,N,0.0,0.0
1487365335.5,286047015.3,N,0.0,0.0
1487365355.4,286047015.0,N,0.0,0.0
1487365375.1,286047015.9,N,0.0,0.0
1487365395.9,286047017.1,Y,0.0,0.0
1487365415.7,286046995.7,N,0.0,0.0
1487365435.5,286046997.6,N,0.0,0.0
1487365455.3,286046997.6,N,0.0,0.0
1487365475.2,286046995.6,N,0.0,0.0
1487365495.0,286046993.3,N,0.0,0.0
1487365515.9,286046996.3,N,0.0,0.0
1487365535.5,286046995.0,N,0.0,0.0
1487365555.3,286046998.0,N,0.0,0.0
1487365575.1,286046994.8,N,0.0,0.0
1487365595.8,286046994.5,N,0.0,0.0
1487365615.7,286046993.7,N,0.0,0.0
1487365635.5,286046994.3,N,0.0,0.0
1487365655.3,286046994.6,N,0.0,0.0
1487365675.2,286046992.5,N,0.0,0.0
1487365695.0,286046994.4,N,0.0,0.0
1487365695.9,286046994.4,N,0.0,0.0
1487365715.0,286046994.5,N,0.0,0.0
1487365715.9,286046994.5,N,0.0,0.0
1487365735.8,286046998.0,N,0.0,0.0
1487365755.6,286046998.0,N,0.0,0.0
1487365775.8,286046993.9,N,0.0,0.0
1487365795.6,286046996.2,N,0.0,0.0
1487365815.2,286046994.0,N,0.0,0.0
1487365835.2,286046999.2,N,0.0,0.0
1487365855.1,286046998.1,N,0.0,0.0
1487365875.5,286047001.4,N,0.0,0.0
1487365895.2,286046998.2,N,0.0,0.0
1487365915.0,286046997.7,N,0.0,0.0
1487365915.9,286046997.7,N,0.0,0.0
1487365935.8,286046999.1,N,0.0,0.0
1487365955.6,286047000.9,N,0.0,0.0
1487365995.6,286046998.7,N,0.0,0.0
1487366015.4,286046995.0,N,0.0,0.0
1487366035.2,286046995.2,N,0.0,0.0
1487366055.1,286046998.1,N,0.0,0.0
1487366075.6,286047000.3,N,0.0,0.0
1487366095.4,286047000.9,N,0.0,0.0
1487366115.3,286046998.0,N,0.0,0.0
1487366135.9,286046998.9,N,0.0,0.0
1487366155.7,286046999.4,N,0.0,0.0
1487366175.5,286046995.3,N,0.0,0.0
1487366195.4,286046995.7,N,0.0,0.0
1487366215.2,286046995.0,N,0.0,0.0
1487366235.3,286046993.4,N,0.0,0.0
1487366255.1,286046997.2,N,0.0,0.0
1487366295.2,286046995.7,N,0.0,0.0
1487366315.9,286046999.5,N,0.0,0.0
1487366335.4,286046994.9,N,0.0,0.0
1487366355.2,286046999.1,N,0.0,0.0
1487366375.1,286047000.4,N,0.0,0.0
1487366376.0,286047000.4,N,0.0,0.0
1487366395.8,286047000.4,N,0.0,0.0
1487366415.6,286047000.2,N,0.0,0.0
1487366435.5,286047000.3,N,0.0,0.0
1487366455.8,286047002.5,N,0.0,0.0
1487366475.7,286047000.4,N,0.0,0.0
1487366495.5,286046999.8,N,0.0,0.0
1487366515.3,286047000.2,N,0.0,0.0
1487366535.2,286047002.3,N,0.0,0.0
1487366555.9,286047003.3,N,0.0,0.0
1487366575.8,286047001.9,N,0.0,0.0
1487366595.6,286046999.9,N,0.0,0.0
1487366615.4,286046998.5,N,0.0,0.0
1487366635.3,286047003.9,N,0.0,0.0
1487366655.1,286047004.1,N,0.0,0.0
1487366675.7,286047003.3,N,0.0,0.0
1487366695.5,286047009.0,N,0.0,0.0
1487366715.4,286047008.4,N,0.0,0.0
1487366735.2,286047004.5,N,0.0,0.0
1487366755.0,286047007.2,N,0.0,0.0
1487366755.9,286047007.2,N,0.0,0.0
1487366775.8,286047004.9,N,0.0,0.0
1487366795.6,286047007.6,N,0.0,0.0
1487366815.2,286047006.0,N,0.0,0.0
1487366835.0,286047004.5,N,0.0,0.0
1487366835.9,286047004.5,N,0.0,0.0
1487366855.8,286047008.8,N,0.0,0.0
1487366875.6,286047007.6,N,0.0,0.0
1487366895.4,286047007.6,N,0.0,0.0
1487366915.3,286047003.5,N,0.0,0.0
1487366935.1,286047001.7,N,0.0,0.0
1487366955.8,286047004.1,N,0.0,0.0
1487366975.7,286047003.3,N,0.0,0.0
1487366995.5,286047006.2,N,0.0,0.0
1487367015.3,286047006.9,N,0.0,0.0
1487367035.5,286047005.2,N,0.0,0.0
1487367055.4,286047007.6,N,0.0,0.0
1487367075.2,286047001.7,N,0.0,0.0
1487367095.0,286047002.8,N,0.0,0.0
1487367095.9,286047002.8,N,0.0,0.0
1487367115.8,286047001.7,N,0.0,0.0
1487367135.6,286047003.3,N,0.0,0.0
1487367155.4,286047007.5,N,0.0,0.0
1487367175.3,286047004.7,N,0.0,0.0
1487367195.1,286047000.2,N,0.0,0.0
1487367215.8,286047006.3,N,0.0,0.0
1487367235.7,286047006.8,N,0.0,0.0
1487367255.7,286047002.9,N,0.0,0.0
1487367275.6,286047008.9,N,0.0,0.0
1487367295.4,286047009.8,N,0.0,0.0
1487367315.2,286047013.7,N,0.0,0.0
1487367335.4,286047010.2,N,0.0,0.0
1487367355.3,286047010.7,N,0.0,0.0
1487367375.1,286047010.1,N,0.0,0.0
1487367376.0,286047010.1,N,0.0,0.0
1487367395.8,286047010.1,N,0.0,0.0
1487367435.3,286047008.8,N,0.0,0.0
1487367455.1,286047009.2,N,0.0,0.0
1487367475.8,286047010.8,N,0.0,0.0
1487367495.7,286047007.8,N,0.0,0.0
1487367535.0,286047009.7,N,0.0,0.0
1487367535.9,286047009.7,N,0.0,0.0
1487367555.8,286047012.4,N,0.0,0.0
1487367575.6,286047007.7,N,0.0,0.0
1487367615.5,286047008.1,N,0.0,0.0
1487367635.0,286047008.0,N,0.0,0.0
1487367636.0,286047008.0,N,0.0,0.0
1487367655.8,286047010.2,N,0.0,0.0
1487367675.4,286047006.4,N,0.0,0.0
1487367695.2,286047010.4,N,0.0,0.0
1487367715.1,286047011.7,N,0.0,0.0
1487367716.0,286047011.7,N,0.0,0.0
1487367735.8,286047012.4,N,0.0,0.0
1487367755.0,286047008.2,N,0.0,0.0
1487367775.9,286047009.3,N,0.0,0.0
1487367795.7,286047013.1,N,0.0,0.0
1487367815.8,286047012.9,N,0.0,0.0
1487367835.6,286047011.8,N,0.0,0.0
1487367855.4,286047009.4,N,0.0,0.0
1487367875.3,286047010.1,N,0.0,0.0
1487367895.1,286047012.9,N,0.0,0.0
1487367896.0,286047012.9,N,0.0,0.0
1487367915.8,286047013.3,N,0.0,0.0
1487367935.7,286047010.9,N,0.0,0.0
1487367955.5,286047013.3,N,0.0,0.0
1487367975.3,286047011.8,N,0.0,0.0
1487367995.3,286047014.9,N,0.0,0.0
1487368015.1,286047014.5,N,0.0,0.0
1487368035.9,286047014.4,N,0.0,0.0
1487368055.7,286047017.0,Y,0.0,0.0
1487368075.6,286047010.2,N,0.0,0.0
1487368095.4,286047010.8,N,0.0,0.0
1487368115.2,286047010.5,N,0.0,0.0
1487368135.0,286047009.8,N,0.0,0.0
1487368135.9,286047009.8,N,0.0,0.0
1487368155.8,286047010.4,N,0.0,0.0
1487368175.4,286047011.6,N,0.0,0.0
1487368195.2,286047012.1,N,0.0,0.0
1487368215.5,286047009.8,N,0.0,0.0
1487368235.3,286047009.6,N,0.0,0.0
1487368255.2,286047012.2,N,0.0,0.0
1487368275.4,286047009.9,N,0.0,0.0
1487368295.2,286047012.4,N,0.0,0.0
1487368315.0,286047010.2,N,0.0,0.0
1487368335.2,286047010.5,N,0.0,0.0
1487368355.0,286047010.9,N,0.0,0.0
1487368355.9,286047010.9,N,0.0,0.0
1487368375.7,286047013.7,N,0.0,0.0
1487368415.2,286047010.9,N,0.0,0.0
1487368435.1,286047014.0,N,0.0,0.0
1487368436.0,286047014.0,N,0.0,0.0
1487368455.8,286047012.3,N,0.0,0.0
1487368475.6,286047009.7,N,0.0,0.0
1487368495.1,286047011.3,N,0.0,0.0
1487368496.0,286047011.3,N,0.0,0.0
1487368515.8,286047011.1,N,0.0,0.0
1487368555.5,286047015.2,Y,0.0,0.0
1487368575.3,286047005.5,N,0.0,0.0
1487368595.1,286047004.7,N,0.0,0.0
1487368615.9,286047006.3,N,0.0,0.0
1487368635.7,286047006.0,N,0.0,0.0
1487368655.0,286047007.1,N,0.0,0.0
1487368655.9,286047007.1,N,0.0,0.0
1487368675.8,286047008.6,N,0.0,0.0
1487368695.6,286047007.7,N,0.0,0.0
1487368715.4,286047008.8,N,0.0,0.0
1487368735.2,286047007.9,N,0.0,0.0
1487368755.1,286047010.4,N,0.0,0.0
1487368756.0,286047010.4,N,0.0,0.0
1487368775.8,286047006.6,N,0.0,0.0
1487368795.6,286047006.9,N,0.0,0.0
